Location: Boca de Tacagua
(10.5333°N, 66.9833°W)
Time: 03:59:22
(UTC+00:00)

Ariane H10-3 - Pass Details

Date: 01 July 2022
Orbit: 476 x 36437 km, 5.2° (Epoch: 14 August)

Event Time Altitude Azimuth Distance (km) Brightness Sun altitude
Rises 18:18:57 0° 255° (WSW) 3,806 5.9 61.5°
Reaches altitude 10° 18:20:30 10° 252° (WSW) 3,292 5.7 61.2°
Maximum altitude 02:37:22 64° 121° (ESE) 27,023 9.2 -46.2°
Drops below altitude 10° 04:31:06 10° 106° (ESE) 9,639 7.4 -56.4°
Sets 04:35:32 0° 103° (ESE) 9,368 7.5 -56.3°
